Regional Weather Roundup
Issued by NWS

Home | Current Version | Previous Version | Graphics & Text | Print | Product List | Glossary On
Versions: 1 2 3 4 5 6 7 8 9 10 11 12 13 14 15 16 17 18 19 20 21 22 23 24 25 26 27 28 29 30 31 32 33 34 35 36 37 38 39 40 41 42 43 44 45 46 47 48 49 50
000
ASUS43 KLMK 191210
RWRKY
KENTUCKY REGIONAL WEATHER ROUNDUP
NATIONAL WEATHER SERVICE LOUISVILLE KY
700 AM EST FRI DEC 19 2014

NOTE "FAIR" INDICATES FEW OR NO CLOUDS BELOW 12,000 FEET
WITH NO SIGNIFICANT WEATHER AND/OR OBSTRUCTIONS TO VISIBILITY.

KYZ001>023-026-027-061>063-070>075-191300-
WESTERN AND SOUTH CENTRAL KENTUCKY

CITY           SKY/WX    TMP DP  RH WIND       PRES   REMARKS
PADUCAH        CLOUDY    33  28  81 NE9       30.27R WCI  25
HENDERSON      CLOUDY    30  25  80 NE8       30.28R WCI  23
OWENSBORO      CLOUDY    31  25  78 NE9       30.28R WCI  23
HOPKINSVILLE   CLOUDY    33  29  85 NE5       30.26S WCI  28
BOWLING GREEN  MOCLDY    29  24  82 CALM      30.28R
GLASGOW        MOCLDY    28  28 100 CALM      30.26R FOG
$$

KYZ024-025-028>034-038-045-046-053-191300-
NORTH CENTRAL KENTUCKY

CITY           SKY/WX    TMP DP  RH WIND       PRES   REMARKS
LOUISVILLE/SDF PTCLDY    28  22  78 N6        30.28S WCI  22
LOUISVILLE/LOU CLEAR     28  23  81 CALM      30.28S
FORT KNOX      PTCLDY    28  24  85 NE5       30.24S WCI  22
$$

KYZ035>037-039>044-047>052-055>060-089>105-191300-
NORTHEAST KENTUCKY

CITY           SKY/WX    TMP DP  RH WIND       PRES   REMARKS
LEXINGTON      PTCLDY    25  22  88 N5        30.25R WCI  19
COVINGTON      CLOUDY    27  20  75 CALM      30.26R
FRANKFORT      CLEAR     25  22  88 CALM      30.26R
$$

KYZ054-064>069-076>088-106>120-191300-
SOUTHEAST KENTUCKY

CITY           SKY/WX    TMP DP  RH WIND       PRES   REMARKS
JACKSON        CLOUDY    29  23  78 N3        30.21R
LONDON         CLOUDY    32  25  75 NE3       30.23R
SOMERSET       CLOUDY    32  27  80 CALM      30.27R
MIDDLESBORO    CLOUDY    34  27  76 CALM      30.23R
MONTICELLO     PTSUNNY   29  26  88 CALM      30.27R FOG
$$




USA.gov is the U.S. government's official web portal to all federal, state and local government web resources and services.